Regional Weather Roundup
Issued by NWS

Home | Current Version | Previous Version | Graphics & Text | Print | Product List | Glossary On
Versions: 1 2 3 4 5 6 7 8 9 10 11 12 13 14 15 16 17 18 19 20 21 22 23 24 25 26 27 28 29 30 31 32 33 34 35 36 37 38 39 40 41 42 43 44 45 46 47 48 49 50
782
ASUS44 KMEG 272310
RWRTN
TENNESSEE HOURLY STATE WEATHER ROUNDUP
NATIONAL WEATHER SERVICE MEMPHIS TN
600 PM CDT TUE SEP 27 2016

TNZ002-004-019-021-049-052-054-088>092-280000-
WEST TENNESSEE

CITY           SKY/WX    TMP DP  RH WIND       PRES   REMARKS
MEMPHIS INTL   PTCLDY    78  39  24 CALM      29.95S
NWS MEMPHIS      N/A     80 N/A N/A MISG        N/A
JACKSON        CLEAR    N/A N/A N/A NW6       29.94F
DYERSBURG      CLEAR    N/A N/A N/A MISG        N/A
UNION CITY     CLEAR     75  46  35 W5        29.93S
PARIS          CLEAR     73  43  33 CALM      29.95S
HUNTINGDON     CLEAR     73  46  38 W3        29.93S
LEXINGTON      CLEAR     73  46  38 NW3       29.94S
$$

TNZ008-025-027-028-033-062-065-066-280000-
NORTH MIDDLE TENNESSEE

CITY           SKY/WX    TMP DP  RH WIND       PRES   REMARKS
NASHVILLE      CLEAR     75  44  33 W7        29.93F
PORTLAND       CLEAR     72  45  37 SW6       29.93S
CLARKSVILLE    CLEAR     72  45  37 W7        29.93S
SMYRNA         CLEAR     75  44  33 N6        29.93F
COOKEVILLE     CLEAR     73  52  46 CALM      29.93S
GALLATIN       CLEAR     72  41  33 NW6       29.95S
CROSSVILLE     CLEAR     71  42  35 NW8       29.96S
$$

TNZ061-075-076-078-094-096-097-280000-
SOUTH MIDDLE TENNESSEE

CITY           SKY/WX    TMP DP  RH WIND       PRES   REMARKS
FAYETTEVILLE   CLEAR     77  45  31 N6        29.93S
TULLAHOMA      CLEAR     73  41  31 NW5       29.95R
WINCHESTER     CLEAR     75  45  33 VRB5      29.93S
MCMINNVILLE    CLEAR     73  46  38 N7        29.94S
COLUMBIA       CLEAR     73  46  38 NW3       29.93S
SHELBYVILLE    CLEAR     77  45  31 NW7       29.94S
$$

TNZ017-018-042-046-047-280000-
NORTHEAST TENNESSEE

CITY           SKY/WX    TMP DP  RH WIND       PRES   REMARKS
TRI CITIES     PTCLDY    73  59  61 SW7       29.92R
ELIZABETHTON   DRIZZLE   70  64  83 CALM      29.92S
$$

TNZ012-013-036-069-073-074-280000-
CENTRAL EAST TENNESSEE

CITY           SKY/WX    TMP DP  RH WIND       PRES   REMARKS
KNOXVILLE      PTCLDY    77  59  53 W6        29.89S
OAK RIDGE      CLEAR     80  41  24 W3        29.91R
DOWNTOWN KNOXV CLEAR     79  59  50 CALM      29.89S
GATLINBURG     PTCLDY    75  61  60 W5        29.90R
MORRISTOWN     CLEAR     75  50  41 W3        29.91R
JACKSBORO      CLEAR     73  41  31 CALM      29.94R
$$

TNZ083-085-099-280000-
SOUTHEAST TENNESSEE

CITY           SKY/WX    TMP DP  RH WIND       PRES   REMARKS
CHATTANOOGA    PTCLDY    83  62  49 W6        29.87F
$$

SKY/WX REPORTED AS FAIR MEANS FEW OR NO CLOUDS BELOW
12 THOUSAND FEET.





USA.gov is the U.S. government's official web portal to all federal, state and local government web resources and services.